Lid_Strength_Index
1 2 2 2 1 2 4 4 4 6 5 4 3 2 1 1 1 0 0 -0 -1 -0 -1 -1 -1 -2 -2 -2 -2 -2 -2 -3 -2 -2 -2 -2 -1 -1
2 2 2 2 2 2 3 4 4 5 6 4 3 3 2 1 1 1 1 0 -0 -0 0 0 0 -1 -1 -1 -1 -1 -1 -2 -2 -2 -2 -2 -2 -2
2 2 2 2 2 2 2 3 5 4 5 4 3 2 3 2 1 0 1 2 2 0 0 1 1 1 0 -0 -0 0 0 -1 -1 -1 -2 -2 -2 -2
1 2 2 2 3 3 3 3 3 4 5 5 5 2 3 2 1 1 1 2 3 2 1 1 1 1 2 1 1 1 1 1 0 -0 -1 -1 -1 -1
1 2 1 2 2 3 4 4 3 3 4 5 4 4 2 3 3 2 2 2 2 1 2 1 2 2 2 3 3 3 3 3 2 2 2 0 -0 -1
1 1 1 1 2 2 3 3 4 4 4 4 4 4 3 2 3 3 3 3 2 1 0 1 1 1 2 3 3 2 4 4 4 4 4 3 1 -0
1 1 0 1 2 2 1 2 3 4 4 4 3 4 4 4 3 3 2 2 2 1 1 1 2 2 2 2 1 1 3 4 4 5 5 4 2 1
1 1 1 2 2 4 4 3 2 3 4 5 4 3 3 3 2 2 3 4 4 2 1 1 2 2 2 2 1 2 3 4 4 5 5 5 3 2
1 1 1 1 2 1 3 4 4 5 4 2 4 3 3 3 2 3 2 2 3 2 1 2 3 2 2 1 2 3 3 4 4 4 5 5 3 3
1 1 1 1 1 2 1 2 2 2 3 3 2 2 2 2 3 3 3 3 2 2 1 3 3 2 2 1 2 2 4 4 5 5 5 5 4 4
1 1 1 1 3 6 2 2 2 2 4 6 5 5 5 6 5 4 5 5 5 4 3 2 3 3 3 2 2 3 4 5 6 5 5 5 5 5
1 1 5 2 6 7 3 2 3 2 1 2 3 5 6 5 7 5 4 5 5 5 3 4 4 4 4 3 3 3 3 6 7 6 5 5 6 5
2 2 1 7 9 9 8 1 2 2 2 2 1 1 1 3 3 3 4 4 4 5 4 3 4 4 4 4 3 3 3 5 5 5 7 7 6 5
2 1 2 8 10 10 9 7 8 7 2 2 2 2 2 2 2 2 3 4 3 4 3 3 4 4 5 8 6 5 5 5 5 5 6 8 6 5
1 3 7 10 11 11 11 10 10 5 4 3 3 2 2 1 1 2 3 3 3 3 2 3 3 3 4 5 7 6 7 7 7 7 7 8 6 6
6 4 5 7 9 7 7 9 8 6 5 4 3 2 1 1 2 2 3 3 3 3 2 1 2 2 3 3 5 6 8 9 8 8 9 8 7 6
5 4 4 3 3 3 3 4 5 5 5 4 4 2 2 2 2 1 2 2 3 3 3 1 1 1 2 3 5 7 9 10 8 9 10 8 7 7
6 5 4 4 4 4 4 3 4 4 4 4 3 3 3 2 2 2 2 3 3 3 3 2 2 5 7 7 6 8 9 10 9 9 10 8 8 8
4 6 6 5 5 5 4 3 3 2 3 3 2 2 2 4 3 3 3 3 4 4 3 2 5 6 8 9 8 7 9 10 8 10 9 8 8 8
6 7 6 6 5 3 4 4 4 4 3 3 2 3 3 3 4 3 3 3 3 4 5 4 4 5 6 8 9 8 10 8 8 9 9 9 7 6
7 7 8 5 5 5 5 5 4 3 2 2 2 2 3 5 4 4 4 7 5 4 5 5 5 6 8 8 8 10 9 9 7 8 9 9 10 10
9 6 5 5 4 4 5 5 3 3 3 3 2 2 4 4 4 3 3 3 3 3 4 6 5 6 8 8 10 10 10 10 8 7 6 7 9 11
5 5 4 4 4 4 4 2 2 2 4 4 4 4 3 3 2 3 3 3 3 4 4 5 5 7 9 9 10 10 10 10 10 9 8 6 6 5